Location: A�t Lahcen
(32.8243°N, 5.4246°W)
Time: 01:46:14
(UTC+00:00)

Cosmos 1092 Rocket - Pass Details

Date: 27 January 2021
Orbit: 954 x 995 km, 83.0° (Epoch: 27 February)

Event Time Altitude Azimuth Distance (km) Brightness Sun altitude
Rises 06:18:46 0° 347° (NNW) 3,641 6.7 -13.0°
Reaches altitude 10° 06:21:19 10° 343° (NNW) 2,695 6.0 -12.5°
Maximum altitude 06:27:14 51° 269° (W) 1,194 4.1 -11.3°
Drops below altitude 10° 06:33:11 10° 195° (SSW) 2,705 6.3 -10.1°
Sets 06:35:46 0° 190° (S) 3,654 7.1 -9.6°
